Regional Weather Roundup
Issued by NWS

Home | Current Version | Previous Version | Text Only | Print | Product List | Glossary On
Versions: 1 2 3 4 5 6 7 8 9 10 11 12 13 14 15 16 17 18 19 20 21 22 23 24 25 26 27 28 29 30 31 32 33 34 35 36 37 38 39 40 41 42 43 44 45 46 47 48 49 50
000
ASUS43 KTOP 200508
RWRKS

WEATHER ROUNDUP FOR KANSAS
NATIONAL WEATHER SERVICE GOODLAND KS
1100 PM CST FRI JAN 19 2018

NOTE:  "FAIR" INDICATES FEW OR NO CLOUDS BELOW 12,000 FEET WITH NO
SIGNIFICANT WEATHER AND/OR OBSTRUCTIONS TO VISIBILITY.

KSZ001>006-013>018-027>032-041>047-200600-
NORTHWEST KANSAS

CITY           SKY/WX    TMP DP  RH WIND       PRES   REMARKS
GOODLAND       MOCLDY    35  20  54 NW3       29.71F
HAYS           CLOUDY    38  17  42 S7        29.72S
HILL CITY      CLOUDY    30  17  58 NW3       29.70R
RUSSELL        CLOUDY    44  22  41 S14       29.71R
$$

KSZ061>065-074>080-084>089-200600-
SOUTHWEST KANSAS

CITY           SKY/WX    TMP DP  RH WIND       PRES   REMARKS
DODGE CITY     CLOUDY    45  16  31 S13       29.72S
ELKHART        PTCLDY    53  20  27 W14       29.73R
GARDEN CITY    CLOUDY   N/A N/A N/A S5        29.71S
GREAT BEND     CLOUDY    36  20  52 S9        29.74S
LIBERAL        CLOUDY    34  14  43 SW6       29.73S
PRATT          CLOUDY    42  19  40 S10       29.76S
$$

KSZ066>073-081>083-090>101-200600-
SOUTHEAST KANSAS

CITY           SKY/WX    TMP DP  RH WIND       PRES   REMARKS
CHANUTE        CLOUDY    44  36  73 S15       29.90R
COFFEYVILLE    CLOUDY    45  38  76 S22G28    29.92R
HUTCHINSON     CLOUDY    44  27  51 S12       29.78S
MEDICINE LODGE   N/A     44  25  47 SE10G18   29.78S
NEWTON         CLOUDY    44  29  55 S18       29.81R
PARSONS        CLOUDY    45  38  76 S14G22    29.92R
WICHITA INTL   CLOUDY    43  31  62 S16       29.81S
WICHITA JABRA  CLOUDY    45  34  65 S15       29.81F
WICHITA MCCONL CLOUDY    44  31  62 S15       29.82R
WINFIELD       CLOUDY    46  37  71 S21G26    29.86R
$$

KSZ007>012-019>026-033>040-048>060-102>105-200600-
NORTHEAST KANSAS

CITY           SKY/WX    TMP DP  RH WIND       PRES   REMARKS
CONCORDIA      CLOUDY    43  25  49 CALM      29.75R
EMPORIA        CLOUDY    41  29  62 S18G26    29.82F
LAWRENCE       CLOUDY    43  30  60 SE7       29.85R
MANHATTAN      CLOUDY    41  26  55 SW5       29.78S
MARYSVILLE     CLOUDY    37  27  65 S6        29.78R
OLATHE IND     CLOUDY    42  32  67 S13       29.86R
OLATHE EXE     CLOUDY    42  32  67 SW13G22   29.86R
SALINA         CLOUDY    45  29  53 S15       29.76S
TOPEKA BILLARD CLOUDY    43  30  60 S6        29.83R
TOPEKA FORBES  PTCLDY    43  30  60 S15       29.81S
$$




USA.gov is the U.S. government's official web portal to all federal, state and local government web resources and services.